Location: Burzi?i
(45.0869°N, 16.0577°E)
Time: 04:20:53
(UTC+00:00)

Cosmos 1689 Rocket - Pass Details

Date: 29 October 2020
Orbit: 360 x 374 km, 97.5° (Epoch: 01 December)

Event Time Altitude Azimuth Distance (km) Brightness Sun altitude
Exits shadow 16:46:58 - 21° (NNE) 1,897 5.3 -11.0°
Reaches altitude 10° 16:48:16 10° 27° (NNE) 1,354 4.5 -11.2°
Maximum altitude 16:51:00 39° 99° (E) 556 2.4 -11.7°
Drops below altitude 10° 16:53:42 10° 171° (S) 1,340 4.8 -12.2°
Sets 16:55:41 0° 179° (S) 2,181 6.0 -12.5°
